Aérodrome :
LOGIN :

S'inscrire | Disclaimer

   EN    FR    IT 

 










Légende :    VFR   VFR Marginal   IFR   IFR Intensif   IFR Très Intensif
Visi : 
Plafond : 
>= 8 km
>= 3000ft
5 à 8 km
1000 à 3000 ft
1500m à 5 km
500 à 1000 ft
800 à 1500m
200 à 500 ft
< 800m
< 200 ft
Symboles :   Orages  Brouillard  Fortes neiges  Fortes précipitations  Vent > 20 kt
SIGMETs :   Divers  Orages  Givrage  Turbulence  Onde Orograph.  Cendres Volcan.






- Altitude de l'aérodrome : 137 ft
- Code IATA : THN


ESGT - Trollhattan-Vanersborg

DERNIER METAR :
  • 260120Z AUTO 18004KT 3300 SCT014/// 08/08 Q0999

METARs EXPIRÉS :
  • 260050Z AUTO 16006KT 9999 FEW020/// SCT150/// BKN200/// 09/08 Q0998
  • 260020Z AUTO 15005KT 9999 FEW009/// SCT015/// BKN110/// 09/09 Q0999
  • 252350Z AUTO 17005KT 9999 FEW016/// SCT023/// BKN098/// 10/09 Q0999
  • 252320Z AUTO 16006KT 9999 FEW010/// SCT014/// BKN019/// 10/09 Q0999
  • 252250Z AUTO 18006KT 9999 FEW011/// BKN140/// 10/09 Q0999

Prévision TAF périmée.



MET'MAP, la Météo Aéronautique d'un coup d'oeil ! - Copyright ORBIFLY Décembre 2007 - Disclaimer

ORBIFLY MET'MAP TEAM :

Programmation & Développement : Alexandra Zaïnal
Sur une idée originale de : Baudouin d'Aumeries
Assistance à la programmation : Marc-Olivier Méhu
Soutien technique & logistique : Manuel Goepfert

Contact : metmap@orbifly.com




SOURCES & CREDITS :

   NOAA